Temp
75 76 78 77 73 72 70 71 69 70 68 69 67 68 67 67 68 67 66 67 65 64 65 64 64 64 60 60 60 60 59 58 55 60 61 62 62 62 65 65 66 63 65
72 71 73 70 70 69 68 68 68 67 67 68 68 68 68 68 67 66 66 67 66 65 64 63 63 65 60 60 59 58 58 59 56 54 58 60 60 62 61 62 64 68 65
69 70 70 68 68 67 67 66 67 66 66 67 68 67 68 67 67 67 67 66 65 64 63 62 62 61 59 58 56 56 56 58 57 56 56 59 59 60 58 59 60 59 67
66 67 68 66 66 66 65 65 66 67 69 68 68 69 68 68 68 66 65 63 64 64 62 62 61 60 56 56 56 55 54 53 54 54 55 56 57 57 56 54 55 58 58
63 62 66 65 66 65 65 64 65 65 66 67 67 68 67 67 67 65 64 62 62 61 62 63 60 60 60 58 56 54 53 51 51 51 52 52 53 53 50 53 53 55 57
60 59 66 64 63 63 63 63 63 65 65 66 66 66 62 58 51 53 58 59 60 60 59 60 61 61 59 56 56 56 54 51 50 50 49 48 49 50 52 49 49 49 47
58 60 64 64 63 63 63 63 63 63 65 64 64 57 53 51 49 50 51 58 58 58 58 58 60 63 59 58 54 54 54 53 53 51 48 49 50 51 48 47 47 48 48
58 60 63 63 63 63 63 63 64 62 61 60 58 55 51 50 49 49 50 54 56 58 58 58 58 57 58 57 56 55 55 55 55 56 52 51 51 50 49 49 48 49 51
51 54 58 62 57 58 54 53 54 55 54 52 54 54 51 48 48 48 49 51 53 55 57 57 56 55 51 51 54 53 53 54 57 54 53 51 49 48 49 49 47 47 47
44 46 47 49 48 48 47 46 49 49 48 47 48 48 48 47 47 47 47 49 49 51 54 49 47 46 44 45 48 50 49 51 50 50 51 52 51 52 50 49 50 46 48
44 44 44 44 44 44 44 45 44 44 44 44 45 46 47 47 48 47 44 47 48 49 52 53 46 44 44 44 44 46 47 46 48 49 50 51 52 53 54 53 54 52 49
43 44 44 44 45 44 44 44 44 44 44 44 44 45 46 47 45 43 44 44 45 47 48 51 50 43 43 43 43 45 45 45 47 48 49 48 49 50 52 53 51 51 53
42 41 43 44 45 45 44 44 45 46 45 45 46 46 47 48 47 44 44 45 46 47 49 48 44 43 43 44 45 43 43 47 48 46 46 47 49 51 52 51 52 52 52
43 43 44 44 44 44 45 45 44 43 43 44 44 46 49 44 46 45 46 46 47 47 46 44 45 44 44 46 44 48 49 48 47 46 45 47 49 49 49 50 49 48 48
44 47 46 45 45 45 47 46 44 44 43 45 46 48 46 46 42 40 40 41 41 41 39 42 44 48 49 49 49 49 49 47 46 46 46 45 46 47 48 49 49 48 47
45 47 49 50 50 48 44 45 43 43 42 41 41 44 46 41 40 40 39 39 38 38 38 41 44 47 46 47 46 45 46 45 45 45 45 44 44 46 47 48 49 47 46
47 47 49 50 51 51 51 50 44 42 42 42 41 41 40 38 39 39 39 38 38 37 38 43 44 43 45 45 44 43 42 44 46 45 44 44 45 45 44 46 47 47 47
49 48 51 51 51 52 53 53 54 51 49 43 41 42 40 40 40 39 38 39 43 42 43 43 43 44 44 44 44 44 44 45 44 44 44 44 44 44 44 44 45 46 46
52 51 52 53 52 52 53 53 54 53 51 52 48 42 43 42 41 41 41 43 42 42 42 43 44 44 44 45 44 45 44 43 43 44 43 43 44 44 43 44 44 38 40
53 47 49 53 52 52 53 53 52 52 51 51 50 47 47 45 43 42 42 42 42 42 42 42 43 44 44 44 44 44 44 43 43 43 43 43 43 44 42 43 43 44 45
54 53 41 53 52 52 51 51 51 50 50 50 46 42 34 41 39 40 40 40 40 40 41 41 42 42 43 43 43 43 42 42 42 42 43 43 43 43 44 44 44 44 46
53 52 52 50 50 51 50 51 50 49 49 49 49 45 37 41 40 39 39 40 41 41 42 41 41 42 42 42 42 41 41 40 41 42 42 43 42 43 43 44 44 44 45
52 51 50 50 49 45 48 49 48 46 47 47 47 44 42 40 39 39 39 40 40 40 42 41 40 41 42 42 43 42 40 40 41 42 41 41 41 40 41 42 42 43 44
52 51 49 49 48 47 45 44 45 42 45 45 44 42 41 40 39 39 39 40 40 40 41 41 40 40 40 41 42 42 42 42 42 42 41 41 40 40 40 41 42 44 44
51 50 49 47 45 44 43 42 42 42 43 43 42 42 41 40 39 39 38 38 38 39 39 40 40 40 40 40 40 40 39 35 38 36 40 39 40 40 41 38 40 43 45
50 48 47 46 44 43 42 41 41 41 40 42 41 41 40 40 40 39 38 37 36 37 38 38 39 40 40 39 39 36 34 34 35 34 37 39 39 39 41 39 40 42 43
MSLP
1004.48 1004.36 1003.91 1004.14 1004.54 1004.89 1006.32 1006.63 1007.97 1008.69 1009.45 1010.53 1011.24 1011.72 1012.31 1013.18 1013.65 1013.94 1014.43 1014.94 1015.44 1015.90 1016.42 1016.56 1016.62 1017.08 1017.30 1017.56 1017.26 1017.18 1017.36 1017.02 1016.87 1016.22 1015.99 1015.41 1014.89 1014.31 1013.70 1013.43 1013.61 1013.44 1013.10
1007.10 1006.24 1005.68 1005.06 1005.11 1005.60 1006.51 1007.02 1007.89 1008.85 1009.67 1010.52 1011.13 1011.80 1012.29 1012.97 1013.59 1013.99 1014.39 1014.84 1015.31 1015.87 1016.40 1016.73 1016.83 1017.26 1017.58 1017.58 1017.50 1017.66 1017.51 1017.12 1016.98 1016.67 1016.27 1015.68 1015.07 1014.63 1014.10 1013.72 1013.59 1013.18 1013.09
1007.94 1006.91 1006.06 1005.36 1005.37 1005.86 1006.44 1007.51 1008.01 1009.11 1009.98 1010.56 1011.06 1011.90 1012.24 1012.96 1013.64 1014.01 1014.41 1014.82 1015.34 1015.97 1016.60 1016.90 1017.12 1017.39 1017.72 1017.58 1017.98 1018.07 1017.66 1017.54 1017.36 1017.06 1016.60 1015.77 1015.30 1015.32 1014.82 1014.34 1014.18 1013.87 1013.19
1007.80 1007.16 1006.06 1005.23 1005.18 1005.76 1006.50 1007.46 1008.27 1008.88 1009.47 1010.22 1011.03 1011.76 1012.28 1013.03 1013.60 1014.19 1014.69 1015.19 1015.66 1016.28 1016.76 1017.07 1017.19 1017.40 1017.67 1017.87 1018.11 1018.03 1018.16 1018.18 1017.70 1017.38 1016.92 1016.50 1016.16 1015.94 1015.59 1015.28 1014.83 1014.48 1014.07
1008.34 1007.54 1006.05 1005.39 1005.10 1005.63 1006.96 1007.82 1008.51 1008.83 1009.80 1010.22 1011.13 1011.56 1012.32 1013.19 1013.89 1014.32 1015.03 1015.45 1015.88 1016.53 1016.88 1016.91 1017.03 1017.30 1017.44 1017.74 1017.91 1017.92 1018.14 1018.28 1017.98 1017.61 1017.40 1017.17 1016.77 1016.41 1016.48 1016.28 1015.81 1015.31 1014.37
1008.63 1007.58 1005.42 1005.20 1005.69 1006.15 1006.95 1007.83 1008.64 1009.12 1009.80 1010.31 1011.09 1011.93 1012.83 1014.47 1014.93 1014.94 1015.34 1015.74 1016.20 1016.54 1016.72 1016.71 1016.82 1016.82 1016.89 1017.52 1017.75 1017.93 1017.98 1018.32 1018.10 1017.71 1017.48 1017.55 1017.28 1017.06 1017.03 1016.96 1016.63 1016.08 1015.21
1008.42 1007.05 1005.61 1004.78 1005.52 1006.35 1007.17 1008.09 1009.02 1009.68 1009.88 1010.63 1011.29 1012.79 1014.15 1015.41 1015.65 1015.97 1015.80 1016.08 1016.44 1016.63 1016.75 1016.63 1016.80 1016.66 1016.90 1017.17 1017.40 1017.74 1017.85 1018.08 1017.87 1017.46 1017.52 1017.40 1017.29 1017.27 1017.27 1017.16 1016.71 1016.54 1015.78
1007.38 1006.53 1005.07 1004.97 1005.23 1006.28 1007.25 1008.59 1009.34 1010.02 1010.94 1011.61 1012.51 1013.64 1014.48 1015.40 1015.90 1016.48 1016.49 1016.54 1016.53 1016.63 1016.76 1016.78 1016.75 1016.83 1016.94 1017.13 1017.28 1017.46 1017.40 1017.44 1017.25 1017.12 1017.37 1017.28 1017.18 1017.26 1017.23 1017.06 1016.67 1016.08 1015.36
1007.79 1006.27 1005.07 1005.10 1005.30 1006.94 1008.10 1009.99 1010.76 1011.27 1012.40 1013.40 1013.85 1014.57 1015.27 1016.01 1016.64 1016.42 1016.59 1016.84 1016.73 1016.65 1016.52 1016.54 1016.58 1016.75 1017.03 1017.38 1017.32 1016.96 1017.00 1016.91 1016.68 1016.96 1017.06 1016.90 1016.79 1016.96 1016.95 1016.87 1016.24 1015.82 1015.17
1009.96 1009.01 1007.29 1006.98 1006.36 1007.32 1009.40 1011.32 1012.15 1012.89 1013.98 1014.96 1015.46 1015.95 1016.24 1016.64 1016.90 1016.94 1017.49 1017.14 1017.14 1017.14 1016.35 1017.06 1017.20 1017.62 1017.63 1017.55 1017.80 1017.50 1017.14 1016.96 1016.93 1017.02 1017.00 1016.88 1016.64 1016.26 1016.14 1016.05 1015.85 1015.64 1015.16
1011.51 1011.27 1010.87 1008.70 1008.75 1008.85 1010.42 1011.89 1013.23 1014.16 1014.85 1015.64 1016.16 1016.76 1016.79 1016.79 1017.16 1017.54 1017.91 1017.45 1017.48 1017.37 1017.13 1016.93 1017.60 1017.94 1018.13 1018.04 1018.15 1018.06 1017.46 1017.10 1017.10 1016.70 1016.49 1016.30 1016.17 1015.79 1015.67 1015.36 1014.91 1014.74 1014.66
1011.72 1013.36 1013.59 1010.40 1012.40 1010.33 1012.38 1013.12 1013.92 1014.88 1015.38 1015.86 1016.49 1016.91 1016.90 1017.12 1017.40 1017.59 1017.97 1017.95 1018.09 1017.97 1017.54 1017.51 1017.26 1017.28 1017.62 1017.58 1017.50 1017.29 1017.00 1017.00 1016.70 1016.09 1016.05 1016.06 1015.73 1015.80 1015.18 1015.12 1014.72 1014.51 1014.54
1013.66 1013.58 1015.47 1012.72 1014.79 1011.48 1013.81 1014.22 1014.77 1015.14 1015.93 1015.90 1016.27 1016.16 1017.47 1017.10 1017.62 1018.44 1018.26 1017.99 1018.22 1018.22 1017.57 1017.72 1017.65 1017.25 1017.20 1016.95 1016.57 1016.60 1016.49 1016.41 1016.24 1016.03 1015.86 1015.34 1015.52 1015.40 1014.87 1014.65 1014.32 1014.20 1013.96
1015.48 1015.72 1015.01 1015.47 1014.24 1014.64 1015.59 1015.73 1016.40 1015.85 1017.03 1016.22 1016.70 1016.21 1017.46 1017.87 1018.13 1019.04 1019.02 1018.43 1018.02 1017.94 1017.66 1017.98 1017.73 1016.82 1016.47 1016.14 1016.38 1016.02 1016.00 1016.00 1016.07 1015.92 1015.61 1015.72 1015.24 1014.91 1014.63 1014.26 1014.09 1013.96 1013.67
1016.51 1016.71 1016.09 1015.85 1015.46 1015.47 1016.59 1017.00 1016.14 1017.52 1017.04 1017.46 1017.12 1017.84 1018.03 1018.46 1018.96 1019.42 1019.56 1019.17 1018.67 1018.39 1018.24 1017.55 1016.82 1016.15 1015.78 1015.56 1015.45 1015.56 1015.70 1015.92 1015.86 1015.70 1015.79 1015.35 1015.25 1014.58 1014.36 1013.86 1013.80 1013.72 1013.36
1016.89 1015.70 1015.55 1015.33 1017.33 1016.78 1016.04 1016.56 1016.74 1017.06 1017.35 1018.12 1018.38 1018.69 1018.84 1019.19 1019.46 1019.34 1019.18 1018.76 1018.39 1018.52 1018.22 1016.86 1016.04 1016.02 1016.11 1015.95 1015.47 1015.68 1016.11 1015.94 1015.97 1015.54 1015.37 1015.24 1014.92 1014.46 1014.14 1013.76 1013.57 1013.40 1013.02
1017.91 1017.61 1017.43 1017.39 1016.78 1015.87 1015.67 1016.98 1017.43 1017.95 1018.42 1018.61 1018.68 1018.79 1019.32 1019.22 1018.96 1018.71 1018.66 1018.28 1017.76 1017.87 1018.00 1016.74 1016.17 1016.08 1016.07 1015.61 1015.78 1015.59 1015.72 1015.90 1015.66 1015.64 1015.23 1014.88 1014.50 1014.33 1014.08 1013.74 1013.35 1012.98 1012.62
1018.70 1018.38 1018.14 1018.15 1017.56 1016.90 1016.94 1016.96 1016.98 1017.22 1017.33 1018.35 1018.60 1018.62 1018.56 1018.66 1018.66 1018.52 1018.16 1017.92 1017.49 1017.19 1017.20 1017.04 1016.69 1015.99 1015.66 1015.50 1015.55 1015.49 1015.26 1015.50 1015.40 1015.47 1014.86 1014.47 1014.37 1014.16 1013.96 1013.72 1013.32 1012.93 1012.61
1020.00 1019.74 1018.96 1018.11 1017.58 1017.31 1017.16 1016.93 1016.91 1017.12 1016.89 1017.29 1017.87 1018.21 1018.02 1018.59 1018.67 1018.47 1018.20 1017.92 1017.53 1017.48 1017.25 1016.77 1016.45 1015.81 1015.62 1015.56 1015.34 1015.27 1015.16 1015.24 1015.23 1015.01 1014.51 1014.25 1014.11 1013.97 1013.86 1013.66 1013.29 1012.90 1012.63
1020.53 1020.29 1019.61 1018.86 1018.69 1018.35 1018.06 1017.99 1017.87 1017.76 1017.52 1017.91 1018.17 1018.88 1019.05 1018.98 1019.17 1018.66 1018.29 1018.08 1017.88 1017.44 1017.06 1016.99 1016.60 1016.34 1015.64 1015.45 1015.39 1015.22 1014.92 1014.86 1014.86 1014.54 1014.11 1013.94 1013.96 1013.68 1013.63 1013.43 1013.24 1012.70 1012.34
1020.77 1020.44 1020.19 1019.68 1019.54 1019.42 1019.27 1018.95 1018.72 1018.62 1018.63 1018.82 1019.18 1019.68 1019.58 1020.11 1019.80 1018.92 1018.56 1018.47 1018.08 1017.79 1017.04 1016.82 1016.96 1016.42 1015.60 1015.42 1015.33 1015.14 1014.98 1014.81 1014.62 1014.36 1014.04 1013.78 1013.65 1013.44 1013.38 1013.18 1013.00 1012.62 1012.07
1021.49 1021.07 1020.79 1020.64 1020.64 1020.36 1020.34 1019.94 1019.88 1019.78 1019.54 1019.27 1019.04 1019.40 1019.57 1020.21 1019.95 1019.35 1018.72 1018.12 1017.77 1017.50 1017.29 1017.04 1016.54 1015.96 1015.46 1015.36 1015.26 1015.13 1014.88 1014.63 1014.39 1014.18 1013.95 1013.68 1013.56 1013.33 1013.24 1012.94 1012.72 1012.40 1012.00
1022.11 1021.94 1021.78 1021.55 1021.43 1021.16 1021.20 1020.85 1020.62 1020.44 1020.14 1019.80 1019.66 1020.17 1020.55 1020.23 1019.63 1019.07 1018.68 1018.22 1017.84 1017.40 1016.88 1016.48 1016.08 1015.59 1015.24 1015.11 1014.95 1014.80 1014.52 1014.26 1014.13 1014.12 1013.91 1013.70 1013.46 1013.33 1013.12 1012.76 1012.50 1012.10 1011.82
1022.50 1022.25 1022.25 1022.18 1022.13 1021.99 1022.00 1021.75 1021.50 1021.26 1020.84 1020.57 1020.41 1020.28 1019.88 1019.50 1019.09 1018.69 1018.36 1017.93 1017.42 1016.88 1016.42 1016.00 1015.68 1015.41 1015.04 1014.72 1014.46 1014.16 1013.92 1013.79 1013.74 1013.67 1013.58 1013.40 1013.23 1013.08 1013.08 1012.67 1012.34 1011.76 1011.58
1023.06 1022.87 1022.75 1022.85 1022.72 1022.60 1022.57 1022.40 1022.09 1021.80 1021.21 1020.78 1020.33 1019.90 1019.53 1019.16 1018.83 1018.50 1018.11 1017.64 1017.10 1016.55 1016.04 1015.56 1015.13 1014.78 1014.50 1014.16 1013.81 1013.54 1013.40 1013.48 1013.53 1013.49 1013.30 1013.34 1013.13 1012.98 1012.75 1012.79 1012.34 1011.78 1011.45
1023.70 1023.64 1023.47 1023.31 1023.24 1022.94 1022.68 1022.48 1022.18 1021.78 1021.35 1020.66 1020.23 1019.76 1019.33 1018.83 1018.46 1018.16 1017.81 1017.40 1016.89 1016.26 1015.54 1014.90 1014.44 1014.03 1013.68 1013.40 1013.16 1013.04 1013.00 1012.92 1012.89 1012.90 1012.85 1012.74 1012.74 1012.63 1012.45 1012.47 1012.12 1011.72 1011.46
Wind_Speed
19 16 9 10 5 5 5 10 9 13 14 12 11 11 9 7 6 6 7 6 6 5 4 4 3 3 3 3 3 3 3 4 5 7 4 6 6 6 5 3 5 6 6
21 15 11 4 3 6 9 9 12 13 13 12 12 11 10 8 6 6 8 7 7 5 5 3 4 3 2 3 4 5 4 5 3 7 5 8 9 5 5 5 4 6 8
18 18 14 5 7 9 9 7 11 12 11 10 11 10 9 10 8 6 6 6 6 6 4 3 2 2 1 4 5 4 5 6 6 5 7 5 3 6 6 6 6 6 8
20 20 14 9 9 8 11 12 10 12 13 12 12 11 11 9 7 6 6 6 5 5 5 3 1 1 6 4 2 3 5 5 5 5 6 6 6 6 4 5 8 7 10
20 22 15 9 10 12 12 10 10 9 9 9 8 10 9 7 4 6 7 6 6 4 2 1 5 5 5 3 1 2 2 3 4 4 5 6 7 7 7 7 7 9 10
20 22 12 12 6 6 10 10 8 9 9 11 10 10 11 9 11 14 8 5 4 1 2 1 1 5 7 9 10 6 4 3 4 3 3 4 5 5 6 6 7 8 10
21 19 12 10 13 12 11 11 10 10 9 10 10 15 14 9 12 11 10 3 3 2 3 2 2 1 3 5 12 10 8 13 14 6 4 5 5 4 4 6 6 8 10
19 20 11 10 16 13 12 12 10 9 10 10 12 15 13 9 12 9 7 3 3 2 4 4 3 3 2 1 3 3 4 6 4 2 5 4 4 4 4 6 8 10 11
11 4 2 12 12 13 18 15 12 14 13 11 9 11 11 8 9 9 6 4 4 5 3 4 4 4 2 4 5 3 5 5 5 6 4 5 8 9 8 6 7 7 9
16 14 9 10 18 19 17 14 12 13 12 8 9 8 9 6 6 6 4 2 4 5 5 9 17 10 12 11 7 6 5 5 4 7 7 7 8 10 13 9 8 8 9
17 18 12 17 18 19 18 14 12 11 9 7 6 3 2 1 5 5 2 3 5 6 6 4 6 10 7 5 4 6 7 5 8 7 7 7 7 7 5 7 7 5 7
21 16 14 21 9 17 15 11 11 8 7 6 3 1 1 1 7 8 7 6 4 4 4 6 4 13 8 8 7 12 11 8 7 7 7 6 6 7 7 6 6 6 6
18 20 10 16 9 15 12 10 7 7 5 4 2 1 4 6 6 9 9 5 2 5 4 7 10 10 12 10 13 11 7 4 5 5 6 6 6 7 6 5 5 6 9
12 13 10 8 13 13 9 9 7 8 5 6 6 6 4 7 6 7 6 6 7 6 10 9 12 15 16 14 9 6 3 3 4 5 4 6 6 6 6 4 3 4 7
14 9 5 5 8 7 5 3 7 4 5 5 6 4 5 5 6 5 5 6 6 7 9 7 6 6 4 3 2 4 3 2 3 4 5 5 6 6 6 4 3 4 6
8 9 11 9 2 5 5 3 10 8 8 7 6 5 4 8 4 7 8 9 9 9 6 6 5 4 6 4 4 5 5 6 5 5 4 5 6 7 6 4 4 5 6
12 12 5 7 8 6 7 3 5 2 4 5 4 3 2 4 7 11 12 10 12 7 5 6 4 5 3 2 3 3 4 5 6 5 5 6 4 5 5 5 5 5 5
13 16 9 3 5 5 4 3 3 2 2 6 7 4 6 3 10 13 11 7 5 3 4 6 6 5 4 4 3 4 3 4 4 5 4 4 4 4 4 6 5 6 5
8 8 9 7 8 9 7 7 7 6 6 6 4 4 3 5 10 11 9 5 6 5 5 6 6 6 5 5 4 5 3 4 5 5 5 4 5 4 5 5 6 5 6
7 10 9 9 9 9 8 8 8 8 8 7 7 8 8 8 7 7 7 6 6 6 6 7 7 7 6 5 6 5 5 4 5 5 3 3 4 4 4 5 5 6 5
8 8 7 9 9 8 8 8 8 9 8 7 7 7 7 8 7 8 8 7 6 6 6 6 7 7 6 6 6 6 6 5 5 6 5 5 5 4 4 5 5 7 6
9 9 9 8 8 8 8 8 8 8 8 8 7 8 11 6 6 6 7 7 7 7 6 6 6 6 6 6 6 6 6 6 6 5 6 6 6 3 6 5 6 5 7
8 9 9 8 9 9 9 9 8 8 8 9 8 7 5 6 6 7 7 7 7 7 6 6 7 7 6 6 6 6 7 6 5 5 7 6 4 4 5 5 5 5 5
9 9 9 9 8 9 9 9 9 10 9 8 7 7 7 7 8 8 8 8 7 7 7 7 7 10 9 8 7 7 6 6 5 5 8 5 4 4 5 6 7 6 4
10 11 10 10 9 8 9 9 9 10 10 9 8 9 9 9 8 9 9 9 9 8 10 10 7 9 11 13 12 13 9 6 9 7 6 7 8 8 7 5 8 7 5
10 11 10 8 9 8 7 8 8 8 9 9 9 9 10 10 9 10 10 10 10 11 12 8 10 13 15 11 12 10 7 8 8 8 7 7 7 6 7 7 12 6 6
Wind_Direction
336 317 298 247 217 159 142 129 159 144 150 156 149 148 151 150 159 139 145 145 132 128 130 132 120 117 56 330 321 349 333 344 323 310 314 309 308 305 284 334 357 329 338
320 311 278 259 163 138 149 181 152 149 149 157 153 160 155 140 132 138 151 149 151 153 112 97 69 44 50 318 10 354 313 325 332 320 330 322 313 346 6 360 356 342 329
321 303 288 201 167 159 154 156 142 146 158 159 154 164 155 145 155 167 126 111 104 96 126 98 87 53 352 51 21 353 345 354 341 322 302 296 330 5 355 353 357 323 335
324 316 288 202 164 149 138 144 157 161 158 155 149 162 146 149 126 119 104 108 112 95 81 63 37 336 72 52 327 344 19 333 321 328 326 328 344 1 352 354 342 352 329
316 312 273 231 175 147 147 150 157 155 160 147 163 131 133 103 113 116 118 108 104 111 113 238 100 125 189 153 268 79 293 329 330 329 323 333 339 354 17 347 344 330 320
305 301 228 158 171 163 141 141 147 153 163 148 142 133 94 85 68 67 55 90 100 185 220 96 342 226 189 179 218 233 259 289 297 308 291 311 314 340 352 352 323 332 320
288 290 242 165 153 145 141 151 150 160 149 131 123 101 96 87 75 69 54 15 31 349 291 291 325 331 34 218 212 223 244 257 250 251 276 289 315 352 352 319 310 308 299
276 273 229 175 151 144 146 155 146 112 98 92 95 106 104 96 88 74 44 291 344 288 267 269 269 274 289 290 5 282 274 288 308 198 244 303 331 348 300 287 295 296 288
355 16 355 134 98 99 88 84 88 93 81 69 67 74 94 97 103 77 42 7 352 323 314 325 312 10 77 16 284 274 278 275 305 151 203 227 273 273 263 294 292 297 299
19 9 65 71 98 93 91 86 78 75 79 74 71 71 72 94 89 67 20 1 331 298 299 89 72 78 55 34 353 328 295 300 3 329 309 285 270 265 246 244 267 266 277
39 37 7 53 75 79 81 80 79 81 83 74 71 56 103 97 150 147 71 354 22 352 335 329 100 65 29 2 314 293 280 329 303 298 291 287 290 280 269 282 307 277 267
56 43 343 61 4 76 75 76 81 80 83 93 116 30 355 181 120 128 96 70 21 317 300 308 349 351 336 297 256 251 252 267 264 261 269 273 272 290 279 268 293 305 293
54 50 350 56 7 68 69 65 71 77 71 73 105 127 189 176 125 154 167 159 256 292 318 329 305 290 281 278 266 264 279 263 282 278 274 270 271 278 275 265 268 274 284
61 61 53 48 51 52 52 51 45 52 10 39 35 42 14 64 61 15 356 347 351 332 9 329 301 278 263 260 290 280 251 252 262 274 276 282 278 272 275 257 275 284 281
26 28 40 65 51 49 60 87 87 52 63 46 28 5 16 23 42 10 340 334 327 321 322 302 291 288 309 321 354 352 5 355 312 298 299 294 296 292 288 253 270 276 284
30 25 27 30 225 180 124 58 36 113 109 110 114 66 72 86 7 316 302 304 298 287 294 290 294 334 305 319 339 330 335 327 313 299 282 275 269 281 299 301 269 260 278
11 3 4 17 359 28 23 156 173 166 194 195 197 174 212 306 313 299 296 299 286 259 258 281 285 266 285 350 315 279 274 273 287 261 282 288 290 276 280 288 286 286 287
21 1 355 39 350 15 15 359 32 28 133 181 218 205 204 270 286 295 308 308 340 17 293 288 286 299 311 298 292 300 290 279 281 279 288 293 304 286 297 292 295 292 303
32 6 345 3 19 21 6 8 22 13 17 15 137 182 122 352 354 3 6 345 337 324 312 307 310 321 319 311 309 298 278 282 280 283 279 271 270 270 284 291 300 292 288
30 26 4 9 20 13 2 12 9 11 13 4 37 36 12 6 354 349 345 337 330 329 331 322 317 313 309 314 308 306 304 306 301 302 298 290 287 262 282 273 283 279 286
12 15 15 23 15 13 6 5 12 12 360 350 84 61 43 10 333 336 337 327 321 319 318 318 308 305 314 313 314 312 311 300 289 295 297 296 276 292 278 281 276 300 288
14 13 17 26 9 17 11 4 18 3 352 351 8 40 37 350 327 325 324 323 322 313 309 303 299 298 302 300 299 296 292 290 295 300 294 293 302 293 284 272 277 269 291
27 21 20 16 13 10 15 3 12 1 348 357 9 19 348 327 331 328 321 317 314 308 303 301 302 303 299 292 285 281 282 281 288 294 290 291 284 264 305 307 301 282 287
11 29 29 18 20 12 17 1 2 355 349 357 359 350 343 345 335 331 332 326 316 308 307 303 302 298 297 293 287 283 283 287 284 276 292 287 279 290 295 298 285 266 269
4 16 24 16 10 12 14 357 356 352 348 343 349 342 344 338 334 336 332 328 322 319 313 308 300 303 306 303 296 290 281 268 273 281 273 278 282 269 272 286 293 293 277
7 18 14 9 3 357 4 357 353 347 339 339 341 340 335 332 335 336 330 327 324 316 311 306 304 306 306 299 297 296 282 269 260 255 249 250 252 255 260 255 280 264 275